THOR ABLESTAR DEB, 405

Orbit data source: Space-Track

THOR ABLESTAR DEB, 405 is space debris in LEO originally from a launch on Thu, 29 Jun 1961 UTC launched from the Air Force Eastern Test Range (AFETR). Debris objects in space refer to the collection of defunct objects orbiting the Earth. Examples of debris include non-operational satellites, rocket bodies, and fragments generated from explosions, collisions, or faulty payload assembly.

Loading next visibility...
THOR ABLESTAR DEB details
Identifier
405, 1961-015EE
Orbit
LEO
Last TLE update9 hours ago
Origin
Flag of USUSAF SSD (US)
ManufacturerUnknown
MissionSpacecraft
Bus & MotorUnknown
MassUnknown
Launch date (UTC)
1961-06-29 (64 years ago)
Launch vehicleUnknown
Launch site
Air Force Eastern Test Range (AFETR)
Object type
Payload
Rocket body
Debris
Shape & HBRUnknown
Radar Cross SectionSmall (<0.1 m²)

Expand to show TLE details & history

TLE from 9 hours ago
0 THOR ABLESTAR DEB
1 00405U 61015EE  25014.92299250  .00000165  00000-0  27749-3 0  9996
2 00405  66.8937 292.7851 0084899 179.9435 253.8566 13.66462010161338
Epoch: 2025-01-14T22:09Z
Definitive object data (Epoch: 2025-01-14T22:09:06.552Z)
Latitude61.63051°
Longitude-102.29854°
Altitude1,039.955 km
Speed7.329 km/s
True Right ascension22h 58m 24s
True Declination61° 29' 31"
Sunlit
Object was in daylight at TLE epoch
Visualization TLE readout
Latitude65.44605°
Longitude-43.27096°
Altitude1,012.242 km
Speed7.357 km/s
Apparent Right ascension22h 09m 18s
Apparent Declination28° 05' 48"
Sunlit
Object is in daylight
Visualization observer readout
Local Sidereal Time07:43:11
Azimuth327.24° NNW
Elevation-13.974°
Doppler factor1
Orbital elements
Apogee altitude1,073.432 km
Perigee altitude947.971 km
Semi-major axis7,388.839 km
Eccentricity0.0084899
Inclination66.8937°
RAAN292.7851°
Arg. of periapsis179.9435°
True anomaly252.92488°
Mean anomaly253.8566°
Eccentric anomaly253.39046°
Mean motion3.41727 °/min
BSTAR0.00027749
Orbital period105.35 mins
Loading maneuver chart data...

THOR ABLESTAR DEB Visibility forecast

Observer location: undefined°, undefined

Span
Click to sort rows by Start time (UTC) header in descending order
Start Az.
Max El. time (UTC)
Max El. Az.
Max El.
End time (UTC)
End Az.
10 mins2025-01-15 18:59:42.703Z162.12° S2025-01-15 19:03:42.703Z114.355° SE29.467°2025-01-15 19:09:42.703Z47.448° ENE
10 mins2025-01-15 20:47:42.703Z241.992° WSW2025-01-15 20:52:42.703Z317.167° NNW35.021°2025-01-15 20:57:42.703Z14.831° NNE
10 mins2025-01-16 04:12:42.703Z349.321° N2025-01-16 04:17:42.703Z56.835° ENE31.93°2025-01-16 04:22:42.703Z117.542° SE
9 mins2025-01-16 06:01:42.703Z306.729° NW2025-01-16 06:05:42.703Z251.995° W30.683°2025-01-16 06:10:42.703Z189.297° SSW
|